#timestamp,LO_Frequency,Hit,StdDev 
1628974815.0,286047000.3,N
1628974815.9,286047000.3,N
1628974835.8,286047000.4,N
1628974855.6,286047000.9,N
1628974875.5,286047002.7,Y
1628974895.3,286046999.8,P
1628974915.1,286047002.7,P
1628974935.9,286047002.5,N
1628974955.7,286047002.3,N
1628974975.5,286047002.3,N
1628974995.4,286047001.6,N
1628975015.2,286047001.7,N
1628975035.1,286047002.3,N
1628975036.0,286047002.3,N
1628975055.8,286047001.5,N
1628975075.6,286047004.3,Y
1628975095.5,286047000.1,P
1628975115.3,286047000.0,N
1628975135.2,286047001.1,N
1628975155.9,286047000.7,N
1628975175.7,286047001.0,N
1628975195.6,286047000.8,N
1628975215.4,286046998.5,N
1628975235.2,286046999.9,N
1628975255.1,286047000.5,N
1628975256.0,286047000.5,N
1628975275.8,286047001.2,N
1628975295.7,286047000.7,N
1628975315.5,286047000.5,N
1628975335.3,286047000.8,N
1628975355.2,286047000.9,N
1628975375.9,286047001.0,N
1628975395.7,286047000.8,N
1628975415.6,286047000.9,N
1628975435.4,286046999.7,N
1628975455.2,286047000.0,N
1628975475.1,286047000.4,N
1628975476.0,286047000.4,N
1628975495.8,286047000.9,N
1628975515.7,286047000.5,N
1628975535.5,286047001.0,N
1628975555.3,286046999.8,N
1628975575.2,286047000.9,N
1628975595.0,286047000.4,N
1628975595.9,286047000.4,N
1628975615.7,286047000.0,N
1628975635.6,286046999.8,N
1628975655.4,286047002.7,Y
1628975675.3,286047000.0,P
1628975695.1,286047000.3,N
1628975715.8,286047000.4,N
1628975735.7,286047001.0,Y
1628975755.5,286047001.2,P
1628975775.4,286047001.0,N
1628975795.2,286046998.5,P
1628975815.0,286046998.4,N
1628975815.9,286046998.4,N
1628975835.8,286046999.0,N
1628975855.6,286046999.3,N
1628975875.5,286046999.0,N
1628975895.3,286046999.3,N
1628975915.1,286046998.2,N
1628975935.9,286046996.6,Y
1628975955.7,286046999.0,P
1628975975.5,286046999.6,N
1628975995.4,286046999.2,P
1628976015.2,286046999.4,N
1628976035.1,286046999.4,Y
1628976036.0,286046999.4,P
1628976055.8,286046999.0,P
1628976075.6,286046999.3,P
1628976095.5,286046999.0,Y
1628976115.3,286046998.5,P
1628976135.2,286047000.5,N
1628976155.9,286047002.4,N
1628976175.7,286047001.6,N
1628976195.6,286047001.5,N
1628976215.4,286047003.6,N
1628976235.2,286047003.2,N
1628976255.1,286047004.7,N
1628976256.0,286047004.7,N
1628976275.8,286047007.6,Y
1628976295.7,286047004.2,P
1628976315.5,286047003.7,P
1628976335.3,286047001.3,N
1628976355.2,286047004.1,Y
1628976375.0,286047000.2,P
1628976375.9,286047000.2,N
1628976395.8,286047000.2,N
1628976415.6,286047000.3,N
1628976435.4,286047002.3,N
1628976455.3,286047000.5,N
1628976475.1,286047002.1,N
1628976495.9,286047002.1,N
1628976515.7,286047003.0,N
1628976535.5,286047007.3,Y
1628976555.4,286047005.6,P
1628976575.2,286047003.3,N
1628976595.0,286047005.1,N
1628976595.9,286047005.1,Y
1628976615.8,286047002.8,P
1628976635.6,286047002.8,P
1628976655.5,286047001.5,N
1628976675.3,286047002.4,N
1628976695.1,286047002.8,Y
1628976715.9,286047001.2,P
1628976735.7,286046998.5,N
1628976755.5,286046999.1,N
1628976775.4,286047000.9,N
1628976795.2,286047000.3,N
1628976815.1,286047004.0,N
1628976816.0,286047004.0,N
1628976835.8,286047004.0,N
1628976855.6,286047003.7,N
1628976875.5,286047003.8,N
1628976895.3,286047003.0,N
1628976915.1,286047004.6,N
1628976935.9,286047006.3,Y
1628976955.7,286047005.0,P
1628976975.6,286047004.6,P
1628976995.4,286047007.5,P
1628977015.2,286047007.2,Y
1628977035.1,286047002.4,P
1628977036.0,286047002.4,N
1628977055.8,286046999.7,N
1628977075.7,286047002.6,N
1628977095.5,286047002.4,N
1628977115.3,286047000.1,N
1628977135.2,286046999.8,N
1628977155.9,286047000.4,N
1628977175.7,286047001.9,N
1628977195.6,286047002.5,N
1628977215.4,286047002.2,N
1628977235.2,286047000.2,N
1628977255.1,286047002.6,N
1628977256.0,286047002.6,N
1628977275.8,286047002.5,N
1628977295.7,286047001.8,N
1628977315.5,286047001.6,N
1628977335.3,286047002.5,N
1628977355.2,286047002.2,N
1628977375.0,286047002.2,N
1628977375.9,286047002.2,N
1628977395.7,286047002.8,N
1628977415.6,286047002.1,N
1628977435.4,286047001.7,N
1628977455.3,286047001.7,N
1628977475.1,286047003.7,Y
1628977495.8,286047002.7,P
1628977515.7,286047002.3,P
1628977535.5,286047005.6,P
1628977555.4,286047005.0,Y
1628977575.2,286047003.1,P
1628977595.0,286047001.7,P
1628977595.9,286047001.7,N
1628977615.8,286047003.7,Y
1628977635.6,286047003.6,P
1628977655.4,286047001.6,N
1628977675.3,286047002.4,N
1628977695.1,286046999.8,N
1628977715.9,286047000.8,N
1628977735.7,286047002.5,N
1628977755.5,286047002.8,N
1628977775.4,286047002.5,N
1628977795.2,286047002.4,N
1628977815.0,286047003.7,Y
1628977815.9,286047003.7,P
1628977835.8,286047002.7,P
1628977855.6,286047000.1,N
1628977875.5,286046999.7,N
1628977895.3,286047002.8,N
1628977915.1,286047000.9,N
1628977935.9,286046998.7,N
1628977955.7,286046999.4,N
1628977975.5,286046999.6,N
1628977995.4,286046996.5,N
1628978015.2,286046998.7,N
1628978035.1,286046998.6,N
1628978036.0,286046998.6,N
1628978055.8,286047000.7,N
1628978075.6,286047000.4,N
1628978095.5,286046999.9,N
1628978115.3,286047001.0,N
1628978135.1,286046998.5,N
1628978155.9,286046998.6,N
1628978175.7,286046999.6,N
1628978195.6,286046996.7,N
1628978215.4,286046998.1,N
1628978235.2,286046996.7,N
1628978255.1,286046998.9,N
1628978256.0,286046998.9,N
1628978275.8,286046998.8,N
1628978295.7,286046998.1,N
1628978315.5,286046998.5,N
1628978335.3,286047000.6,N
1628978355.2,286046999.7,N
1628978375.0,286047001.8,N
1628978375.9,286047001.8,N
1628978395.7,286047002.6,N
